Location: Miles
(41.4492°N, 81.6087°W)
Time: 23:20:22
(UTC+00:00)

deb Explorer IX - Visible Passes

Search period start: 11 September 2024 00:00
Search period end: 21 September 2024 00:00
Orbit: 505 x 849 km, 38.7° (Epoch: 11 September)

Date Brightness Start Highest point End Pass type
(mag) Time Alt. Az. Time Alt. Az. Time Alt. Az.
11 Sep ? 01:42:20 10° SSW 01:43:17 13° S 01:43:17 13° S visible
12 Sep ? 00:36:44 10° SSE 00:38:53 12° SE 00:39:46 12° SE visible
12 Sep ? 02:16:36 10° SW 02:18:05 17° SSW 02:18:05 17° SSW visible
13 Sep ? 01:09:23 10° SSW 01:14:04 25° SSE 01:14:19 25° SE visible
13 Sep ? 02:51:42 10° WSW 02:52:37 15° WSW 02:52:37 15° WSW visible
14 Sep ? 00:02:57 10° S 00:06:17 16° SE 00:09:36 10° ESE visible
14 Sep ? 01:43:52 10° SW 01:48:37 39° S 01:48:37 39° S visible
15 Sep ? 00:36:21 10° SSW 00:41:22 29° SSE 00:44:24 19° ESE visible
15 Sep ? 02:19:00 10° WSW 02:22:40 37° SW 02:22:40 37° SW visible
16 Sep ? 01:10:58 10° SW 01:16:34 47° SSE 01:18:16 37° ESE visible
16 Sep ? 02:54:22 10° W 02:56:31 23° WSW 02:56:31 23° WSW visible
17 Sep ? 00:03:11 10° SW 00:08:23 34° SSE 00:13:39 10° E visible
17 Sep ? 01:46:03 10° WSW 01:51:53 63° S 01:51:55 63° S visible
17 Sep ? 03:29:49 10° W 03:30:09 12° W 03:30:09 12° W visible
18 Sep ? 00:37:50 10° WSW 00:43:30 52° SSE 00:47:10 22° E visible
18 Sep ? 02:21:19 10° W 02:25:24 44° WSW 02:25:24 44° WSW visible
19 Sep ? 01:12:52 10° WSW 01:18:41 66° S 01:20:31 43° ESE visible
19 Sep ? 02:56:37 10° W 02:58:45 23° W 02:58:45 23° W visible
20 Sep ? 00:04:30 10° WSW 00:10:09 57° SSE 00:15:33 12° E visible
20 Sep ? 01:48:01 10° W 01:53:45 68° SSW 01:53:45 68° SSW visible
20 Sep ? 03:31:57 10° W 03:31:58 10° W 03:31:58 10° W visible
